Time,TemperatureF,DewpointF,PressureIn,WindDirection,WindDirectionDegrees,WindSpeedMPH,WindSpeedGustMPH,Humidity,HourlyPrecipIn,Conditions,Clouds,dailyrainin,SoftwareType,DateUTC
2013-02-04 00:00:00,9.9,5.5,30.03,West,281,0.0,0.0,82,0.00,,,0.00,Wunderground v.1.15,2013-02-04 06:00:00,
2013-02-04 00:10:00,9.9,5.8,30.03,West,281,0.0,0.0,83,0.00,,,0.00,Wunderground v.1.15,2013-02-04 06:10:00,
2013-02-04 00:15:00,10.0,6.1,30.03,West,281,0.0,0.0,84,0.00,,,0.00,Wunderground v.1.15,2013-02-04 06:15:00,
2013-02-04 00:25:00,10.0,6.4,30.03,West,281,0.0,0.0,85,0.00,,,0.00,Wunderground v.1.15,2013-02-04 06:25:00,
2013-02-04 00:35:00,10.0,6.4,30.03,West,281,0.0,0.0,85,0.00,,,0.00,Wunderground v.1.15,2013-02-04 06:35:00,
2013-02-04 00:45:00,10.0,6.6,30.03,West,281,0.0,0.0,86,0.00,,,0.00,Wunderground v.1.15,2013-02-04 06:45:00,
2013-02-04 00:55:00,10.0,6.6,30.02,West,281,0.0,0.0,86,0.00,,,0.00,Wunderground v.1.15,2013-02-04 06:55:00,
2013-02-04 01:00:00,10.0,6.6,30.02,West,281,0.0,1.0,86,0.00,,,0.00,Wunderground v.1.15,2013-02-04 07:00:00,
2013-02-04 01:10:00,9.9,6.8,30.02,West,281,1.0,2.0,87,0.00,,,0.00,Wunderground v.1.15,2013-02-04 07:10:00,
2013-02-04 01:20:00,9.9,6.8,30.01,NNW,342,1.0,1.0,87,0.00,,,0.00,Wunderground v.1.15,2013-02-04 07:20:00,
2013-02-04 01:25:00,9.8,6.7,30.01,NNW,342,1.0,2.0,87,0.00,,,0.00,Wunderground v.1.15,2013-02-04 07:25:00,
2013-02-04 01:35:00,9.6,6.5,30.01,NE,38,2.0,3.0,87,0.00,,,0.00,Wunderground v.1.15,2013-02-04 07:35:00,
2013-02-04 01:40:00,9.4,6.3,30.01,NNE,24,2.0,2.0,87,0.00,,,0.00,Wunderground v.1.15,2013-02-04 07:40:00,
2013-02-04 01:50:00,9.2,6.4,30.01,NNE,27,2.0,3.0,88,0.00,,,0.00,Wunderground v.1.15,2013-02-04 07:50:00,
2013-02-04 02:00:00,9.0,5.9,30.01,NE,48,2.0,2.0,87,0.00,,,0.00,Wunderground v.1.15,2013-02-04 08:00:00,
2013-02-04 02:05:00,8.9,5.8,30.01,NE,38,2.0,3.0,87,0.00,,,0.00,Wunderground v.1.15,2013-02-04 08:05:00,
2013-02-04 02:15:00,8.7,5.6,30.01,NE,50,2.0,2.0,87,0.00,,,0.00,Wunderground v.1.15,2013-02-04 08:15:00,
2013-02-04 02:25:00,8.5,5.4,30.01,NE,43,2.0,2.0,87,0.00,,,0.00,Wunderground v.1.15,2013-02-04 08:25:00,
2013-02-04 02:35:00,8.3,5.0,30.01,NE,50,2.0,3.0,86,0.00,,,0.00,Wunderground v.1.15,2013-02-04 08:35:00,
2013-02-04 02:45:00,8.2,4.9,30.01,ENE,65,1.0,4.0,86,0.00,,,0.00,Wunderground v.1.15,2013-02-04 08:45:00,
2013-02-04 02:55:00,8.0,4.7,30.01,NE,40,2.0,3.0,86,0.00,,,0.00,Wunderground v.1.15,2013-02-04 08:55:00,
2013-02-04 03:00:00,8.0,4.7,30.01,NE,53,2.0,2.0,86,0.00,,,0.00,Wunderground v.1.15,2013-02-04 09:00:00,
2013-02-04 03:10:00,7.8,4.2,30.01,ENE,58,2.0,3.0,85,0.00,,,0.00,Wunderground v.1.15,2013-02-04 09:10:00,
2013-02-04 03:20:00,7.6,4.0,30.01,NE,46,2.0,2.0,85,0.00,,,0.00,Wunderground v.1.15,2013-02-04 09:20:00,
2013-02-04 03:30:00,7.4,3.8,30.00,NE,52,2.0,2.0,85,0.00,,,0.00,Wunderground v.1.15,2013-02-04 09:30:00,
2013-02-04 03:40:00,7.2,3.4,30.01,ENE,66,2.0,2.0,84,0.00,,,0.00,Wunderground v.1.15,2013-02-04 09:40:00,
2013-02-04 03:45:00,7.1,3.5,30.01,ENE,57,2.0,2.0,85,0.00,,,0.00,Wunderground v.1.15,2013-02-04 09:45:00,
2013-02-04 03:50:00,7.1,3.5,30.01,NE,49,2.0,3.0,85,0.00,,,0.00,Wunderground v.1.15,2013-02-04 09:50:00,
2013-02-04 04:00:00,7.1,3.5,30.01,NE,44,2.0,2.0,85,0.00,,,0.00,Wunderground v.1.15,2013-02-04 10:00:00,
2013-02-04 04:10:00,7.0,3.4,30.01,NE,45,2.0,2.0,85,0.00,,,0.00,Wunderground v.1.15,2013-02-04 10:10:00,
2013-02-04 04:20:00,7.0,3.4,30.01,NE,42,2.0,3.0,85,0.00,,,0.00,Wunderground v.1.15,2013-02-04 10:20:00,
2013-02-04 04:25:00,6.9,3.3,30.01,NE,42,2.0,3.0,85,0.00,,,0.00,Wunderground v.1.15,2013-02-04 10:25:00,
2013-02-04 04:35:00,6.9,3.3,30.01,NE,47,2.0,2.0,85,0.00,,,0.00,Wunderground v.1.15,2013-02-04 10:35:00,
2013-02-04 04:45:00,6.9,3.1,30.01,NE,41,2.0,4.0,84,0.00,,,0.00,Wunderground v.1.15,2013-02-04 10:45:00,
2013-02-04 04:55:00,6.8,3.0,30.02,NE,41,1.0,2.0,84,0.00,,,0.00,Wunderground v.1.15,2013-02-04 10:55:00,
2013-02-04 05:00:00,6.7,2.9,30.02,NE,41,1.0,1.0,84,0.00,,,0.00,Wunderground v.1.15,2013-02-04 11:00:00,
2013-02-04 05:10:00,6.4,2.6,30.02,NE,41,0.0,0.0,84,0.00,,,0.00,Wunderground v.1.15,2013-02-04 11:10:00,
2013-02-04 05:15:00,6.2,2.4,30.02,NE,41,0.0,0.0,84,0.00,,,0.00,Wunderground v.1.15,2013-02-04 11:15:00,
2013-02-04 05:25:00,5.9,2.1,30.02,NE,41,1.0,2.0,84,0.00,,,0.00,Wunderground v.1.15,2013-02-04 11:25:00,
2013-02-04 05:30:00,5.7,1.9,30.01,NE,41,1.0,1.0,84,0.00,,,0.00,Wunderground v.1.15,2013-02-04 11:30:00,
2013-02-04 05:40:00,5.3,1.5,30.01,NE,41,0.0,0.0,84,0.00,,,0.00,Wunderground v.1.15,2013-02-04 11:40:00,
2013-02-04 05:50:00,5.1,1.6,30.01,NE,41,0.0,1.0,85,0.00,,,0.00,Wunderground v.1.15,2013-02-04 11:50:00,
2013-02-04 06:00:00,4.9,1.1,30.01,NE,41,1.0,1.0,84,0.00,,,0.00,Wunderground v.1.15,2013-02-04 12:00:00,
2013-02-04 06:10:00,4.8,1.3,30.02,NE,41,1.0,1.0,85,0.00,,,0.00,Wunderground v.1.15,2013-02-04 12:10:00,
2013-02-04 06:15:00,4.7,1.2,30.01,NE,41,1.0,1.0,85,0.00,,,0.00,Wunderground v.1.15,2013-02-04 12:15:00,
2013-02-04 06:25:00,4.6,1.1,30.01,NE,41,0.0,1.0,85,0.00,,,0.00,Wunderground v.1.15,2013-02-04 12:25:00,
2013-02-04 06:35:00,4.5,1.0,30.02,NE,41,0.0,0.0,85,0.00,,,0.00,Wunderground v.1.15,2013-02-04 12:35:00,
2013-02-04 06:45:00,4.3,0.5,30.02,NE,41,0.0,1.0,84,0.00,,,0.00,Wunderground v.1.15,2013-02-04 12:45:00,
2013-02-04 06:55:00,4.1,0.3,30.02,NE,41,1.0,1.0,84,0.00,,,0.00,Wunderground v.1.15,2013-02-04 12:55:00,
2013-02-04 07:00:00,3.9,0.1,30.02,NE,41,1.0,2.0,84,0.00,,,0.00,Wunderground v.1.15,2013-02-04 13:00:00,
2013-02-04 07:10:00,3.7,-0.3,30.02,NE,42,1.0,1.0,83,0.00,,,0.00,Wunderground v.1.15,2013-02-04 13:10:00,
2013-02-04 07:20:00,3.4,-0.6,30.02,NE,41,0.0,0.0,83,0.00,,,0.00,Wunderground v.1.15,2013-02-04 13:20:00,
2013-02-04 07:25:00,3.2,-0.8,30.03,NE,41,0.0,0.0,83,0.00,,,0.00,Wunderground v.1.15,2013-02-04 13:25:00,
2013-02-04 07:35:00,3.0,-1.0,30.03,NE,41,0.0,0.0,83,0.00,,,0.00,Wunderground v.1.15,2013-02-04 13:35:00,
2013-02-04 07:40:00,3.1,-0.9,30.03,NE,38,1.0,1.0,83,0.00,,,0.00,Wunderground v.1.15,2013-02-04 13:40:00,
2013-02-04 07:45:00,3.2,-0.8,30.03,NE,38,1.0,1.0,83,0.00,,,0.00,Wunderground v.1.15,2013-02-04 13:45:00,
2013-02-04 07:55:00,3.6,-0.7,30.03,NE,38,1.0,2.0,82,0.00,,,0.00,Wunderground v.1.15,2013-02-04 13:55:00,
2013-02-04 08:00:00,3.8,-0.7,30.03,NE,38,1.0,4.0,81,0.00,,,0.00,Wunderground v.1.15,2013-02-04 14:00:00,
2013-02-04 08:10:00,4.1,-0.7,30.04,NE,37,1.0,1.0,80,0.00,,,0.00,Wunderground v.1.15,2013-02-04 14:10:00,
2013-02-04 08:15:00,4.2,-0.9,30.04,North,355,2.0,3.0,79,0.00,,,0.00,Wunderground v.1.15,2013-02-04 14:15:00,
2013-02-04 08:25:00,4.5,-0.8,30.04,North,355,2.0,2.0,78,0.00,,,0.00,Wunderground v.1.15,2013-02-04 14:25:00,
2013-02-04 08:35:00,5.3,-0.6,30.04,NNE,18,1.0,3.0,76,0.00,,,0.00,Wunderground v.1.15,2013-02-04 14:35:00,
2013-02-04 08:45:00,5.4,-0.8,30.04,NNE,33,2.0,3.0,75,0.00,,,0.00,Wunderground v.1.15,2013-02-04 14:45:00,
2013-02-04 08:50:00,5.6,-0.6,30.04,NNE,33,2.0,2.0,75,0.00,,,0.00,Wunderground v.1.15,2013-02-04 14:50:00,
2013-02-04 09:00:00,6.0,-0.5,30.04,NNE,30,2.0,4.0,74,0.00,,,0.00,Wunderground v.1.15,2013-02-04 15:00:00,
2013-02-04 09:10:00,6.3,-0.2,30.04,NNE,32,3.0,3.0,74,0.00,,,0.00,Wunderground v.1.15,2013-02-04 15:10:00,
2013-02-04 09:15:00,6.5,0.0,30.04,North,11,3.0,3.0,74,0.00,,,0.00,Wunderground v.1.15,2013-02-04 15:15:00,
2013-02-04 09:25:00,6.7,-0.1,30.04,NNW,345,2.0,4.0,73,0.00,,,0.00,Wunderground v.1.15,2013-02-04 15:25:00,
2013-02-04 09:30:00,6.5,-0.3,30.04,North,350,3.0,3.0,73,0.00,,,0.00,Wunderground v.1.15,2013-02-04 15:30:00,
2013-02-04 09:40:00,7.3,0.5,30.04,North,355,2.0,3.0,73,0.00,,,0.00,Wunderground v.1.15,2013-02-04 15:40:00,
2013-02-04 09:45:00,7.3,0.2,30.04,North,355,2.0,3.0,72,0.00,,,0.00,Wunderground v.1.15,2013-02-04 15:45:00,
2013-02-04 09:55:00,7.5,0.4,30.05,North,360,2.0,4.0,72,0.00,,,0.00,Wunderground v.1.15,2013-02-04 15:55:00,
2013-02-04 10:00:00,7.7,0.8,30.05,North,350,2.0,2.0,73,0.00,,,0.00,Wunderground v.1.15,2013-02-04 16:00:00,
2013-02-04 10:10:00,7.8,0.6,30.05,NNW,337,3.0,4.0,72,0.00,,,0.00,Wunderground v.1.15,2013-02-04 16:10:00,
2013-02-04 10:15:00,7.7,0.5,30.06,North,349,3.0,4.0,72,0.00,,,0.00,Wunderground v.1.15,2013-02-04 16:15:00,
2013-02-04 10:25:00,8.4,1.2,30.05,NNE,26,3.0,4.0,72,0.00,,,0.00,Wunderground v.1.15,2013-02-04 16:25:00,
2013-02-04 10:30:00,8.3,0.8,30.05,NE,53,3.0,3.0,71,0.00,,,0.00,Wunderground v.1.15,2013-02-04 16:30:00,
2013-02-04 10:40:00,8.7,1.5,30.05,NNE,29,3.0,3.0,72,0.00,,,0.00,Wunderground v.1.15,2013-02-04 16:40:00,
2013-02-04 10:45:00,8.7,0.9,30.05,North,350,2.0,3.0,70,0.00,,,0.00,Wunderground v.1.15,2013-02-04 16:45:00,
2013-02-04 10:55:00,9.4,1.6,30.06,NNW,346,2.0,3.0,70,0.00,,,0.00,Wunderground v.1.15,2013-02-04 16:55:00,
2013-02-04 11:00:00,9.5,1.7,30.06,NNW,333,3.0,3.0,70,0.00,,,0.00,Wunderground v.1.15,2013-02-04 17:00:00,
2013-02-04 11:10:00,10.0,1.9,30.06,NNW,333,2.0,2.0,69,0.00,,,0.00,Wunderground v.1.15,2013-02-04 17:10:00,
2013-02-04 11:15:00,10.1,1.9,30.06,NNW,333,2.0,2.0,69,0.00,,,0.00,Wunderground v.1.15,2013-02-04 17:15:00,
2013-02-04 11:25:00,10.5,2.0,30.06,NNW,330,2.0,2.0,68,0.00,,,0.00,Wunderground v.1.15,2013-02-04 17:25:00,
2013-02-04 11:35:00,10.4,1.9,30.06,WNW,284,2.0,2.0,68,0.00,,,0.00,Wunderground v.1.15,2013-02-04 17:35:00,
2013-02-04 11:40:00,11.0,2.5,30.06,WNW,284,1.0,1.0,68,0.00,,,0.00,Wunderground v.1.15,2013-02-04 17:40:00,
2013-02-04 11:50:00,11.6,2.4,30.05,North,5,1.0,2.0,66,0.00,,,0.00,Wunderground v.1.15,2013-02-04 17:50:00,
2013-02-04 11:55:00,11.7,2.2,30.05,North,5,2.0,2.0,65,0.00,,,0.00,Wunderground v.1.15,2013-02-04 17:55:00,
2013-02-04 12:00:00,12.0,2.8,30.05,North,5,2.0,2.0,66,0.00,,,0.00,Wunderground v.1.15,2013-02-04 18:00:00,
2013-02-04 12:10:00,12.1,2.6,30.05,NNW,334,2.0,2.0,65,0.00,,,0.00,Wunderground v.1.15,2013-02-04 18:10:00,
2013-02-04 12:20:00,12.4,1.8,30.05,WNW,286,2.0,3.0,62,0.00,,,0.00,Wunderground v.1.15,2013-02-04 18:20:00,
2013-02-04 12:30:00,12.5,2.3,30.05,NW,325,2.0,2.0,63,0.00,,,0.00,Wunderground v.1.15,2013-02-04 18:30:00,
2013-02-04 12:40:00,12.9,2.0,30.05,NW,325,1.0,1.0,61,0.00,,,0.00,Wunderground v.1.15,2013-02-04 18:40:00,
2013-02-04 12:50:00,13.3,2.0,30.03,NNW,339,2.0,3.0,60,0.00,,,0.00,Wunderground v.1.15,2013-02-04 18:50:00,
2013-02-04 12:55:00,13.2,1.5,30.03,NNW,337,3.0,3.0,59,0.00,,,0.00,Wunderground v.1.15,2013-02-04 18:55:00,
2013-02-04 13:00:00,13.2,1.5,30.02,North,355,3.0,4.0,59,0.00,,,0.00,Wunderground v.1.15,2013-02-04 19:00:00,
2013-02-04 13:05:00,13.4,1.7,30.01,NNW,328,2.0,4.0,59,0.00,,,0.00,Wunderground v.1.15,2013-02-04 19:05:00,
2013-02-04 13:15:00,13.4,1.7,30.01,NNW,339,3.0,4.0,59,0.00,,,0.00,Wunderground v.1.15,2013-02-04 19:15:00,
2013-02-04 13:25:00,13.3,1.6,30.01,North,355,3.0,3.0,59,0.00,,,0.00,Wunderground v.1.15,2013-02-04 19:25:00,
2013-02-04 13:30:00,13.6,1.5,30.01,NW,319,2.0,3.0,58,0.00,,,0.00,Wunderground v.1.15,2013-02-04 19:30:00,
2013-02-04 13:40:00,13.7,0.9,30.00,NW,313,2.0,4.0,56,0.00,,,0.00,Wunderground v.1.15,2013-02-04 19:40:00,
2013-02-04 13:50:00,13.5,0.3,30.00,NNW,338,3.0,4.0,55,0.00,,,0.00,Wunderground v.1.15,2013-02-04 19:50:00,
2013-02-04 14:00:00,14.0,0.8,29.99,NNW,338,1.0,1.0,55,0.00,,,0.00,Wunderground v.1.15,2013-02-04 20:00:00,
2013-02-04 14:10:00,14.5,1.2,29.99,NNW,338,1.0,1.0,55,0.00,,,0.00,Wunderground v.1.15,2013-02-04 20:10:00,
2013-02-04 14:20:00,14.3,0.7,29.99,NNW,338,1.0,1.0,54,0.00,,,0.00,Wunderground v.1.15,2013-02-04 20:20:00,
2013-02-04 14:30:00,15.2,0.7,29.99,NNW,338,1.0,2.0,52,0.00,,,0.00,Wunderground v.1.15,2013-02-04 20:30:00,
2013-02-04 14:40:00,15.0,0.1,29.99,NNW,338,1.0,1.0,51,0.00,,,0.00,Wunderground v.1.15,2013-02-04 20:40:00,
2013-02-04 14:50:00,15.2,0.7,29.99,NNW,338,2.0,2.0,52,0.00,,,0.00,Wunderground v.1.15,2013-02-04 20:50:00,
2013-02-04 15:00:00,15.7,0.7,29.99,NNW,338,1.0,3.0,51,0.00,,,0.00,Wunderground v.1.15,2013-02-04 21:00:00,
2013-02-04 15:10:00,15.0,0.9,29.99,West,263,3.0,3.0,53,0.00,,,0.00,Wunderground v.1.15,2013-02-04 21:10:00,
2013-02-04 15:15:00,14.9,1.2,29.99,West,268,3.0,4.0,54,0.00,,,0.00,Wunderground v.1.15,2013-02-04 21:15:00,
2013-02-04 15:25:00,15.0,0.9,29.99,WSW,244,3.0,4.0,53,0.00,,,0.00,Wunderground v.1.15,2013-02-04 21:25:00,
2013-02-04 15:30:00,15.1,0.6,29.99,South,180,3.0,3.0,52,0.00,,,0.00,Wunderground v.1.15,2013-02-04 21:30:00,
2013-02-04 15:40:00,15.3,0.4,29.99,WSW,242,2.0,3.0,51,0.00,,,0.00,Wunderground v.1.15,2013-02-04 21:40:00,
2013-02-04 15:50:00,14.9,0.8,29.99,NW,307,3.0,3.0,53,0.00,,,0.00,Wunderground v.1.15,2013-02-04 21:50:00,
2013-02-04 16:00:00,14.8,0.3,29.99,West,261,3.0,4.0,52,0.00,,,0.00,Wunderground v.1.15,2013-02-04 22:00:00,
2013-02-04 16:10:00,14.8,-0.1,29.99,West,279,3.0,3.0,51,0.00,,,0.00,Wunderground v.1.15,2013-02-04 22:10:00,
2013-02-04 16:20:00,14.4,-1.3,29.99,West,259,3.0,4.0,49,0.00,,,0.00,Wunderground v.1.15,2013-02-04 22:20:00,
2013-02-04 16:30:00,13.7,-2.0,29.98,WNW,283,2.0,2.0,49,0.00,,,0.00,Wunderground v.1.15,2013-02-04 22:30:00,
2013-02-04 16:35:00,13.4,-2.7,29.98,WNW,283,2.0,2.0,48,0.00,,,0.00,Wunderground v.1.15,2013-02-04 22:35:00,
2013-02-04 16:45:00,12.6,-2.1,29.98,West,281,2.0,3.0,51,0.00,,,0.00,Wunderground v.1.15,2013-02-04 22:45:00,
2013-02-04 16:55:00,12.2,-1.7,29.99,WNW,286,1.0,2.0,53,0.00,,,0.00,Wunderground v.1.15,2013-02-04 22:55:00,
2013-02-04 17:00:00,12.1,-1.4,29.98,WNW,286,1.0,1.0,54,0.00,,,0.00,Wunderground v.1.15,2013-02-04 23:00:00,
2013-02-04 17:05:00,11.9,-1.6,29.98,WNW,286,0.0,1.0,54,0.00,,,0.00,Wunderground v.1.15,2013-02-04 23:05:00,
2013-02-04 17:15:00,12.2,0.6,29.98,WNW,286,1.0,1.0,59,0.00,,,0.00,Wunderground v.1.15,2013-02-04 23:15:00,
2013-02-04 17:25:00,11.5,-0.8,29.97,WNW,286,0.0,1.0,57,0.00,,,0.00,Wunderground v.1.15,2013-02-04 23:25:00,
2013-02-04 17:35:00,11.2,-1.1,29.97,WNW,286,0.0,0.0,57,0.00,,,0.00,Wunderground v.1.15,2013-02-04 23:35:00,
2013-02-04 17:45:00,10.8,-1.1,29.98,WNW,286,0.0,0.0,58,0.00,,,0.00,Wunderground v.1.15,2013-02-04 23:45:00,
2013-02-04 17:50:00,10.7,-1.2,29.98,WNW,286,0.0,0.0,58,0.00,,,0.00,Wunderground v.1.15,2013-02-04 23:50:00,
2013-02-04 18:00:00,10.6,-0.6,29.98,WNW,286,0.0,0.0,60,0.00,,,0.00,Wunderground v.1.15,2013-02-05 00:00:00,
2013-02-04 18:10:00,10.5,-1.0,29.98,WNW,286,0.0,0.0,59,0.00,,,0.00,Wunderground v.1.15,2013-02-05 00:10:00,
2013-02-04 18:20:00,10.3,-0.5,29.99,WNW,286,0.0,0.0,61,0.00,,,0.00,Wunderground v.1.15,2013-02-05 00:20:00,
2013-02-04 18:30:00,9.9,-1.2,29.98,WNW,286,0.0,0.0,60,0.00,,,0.00,Wunderground v.1.15,2013-02-05 00:30:00,
2013-02-04 18:40:00,9.6,-1.2,29.99,WNW,286,0.0,0.0,61,0.00,,,0.00,Wunderground v.1.15,2013-02-05 00:40:00,
2013-02-04 18:50:00,9.0,-1.4,29.99,WNW,286,0.0,0.0,62,0.00,,,0.00,Wunderground v.1.15,2013-02-05 00:50:00,
2013-02-04 18:55:00,8.9,-1.5,29.99,WNW,286,0.0,0.0,62,0.00,,,0.00,Wunderground v.1.15,2013-02-05 00:55:00,
2013-02-04 19:00:00,9.0,-1.4,29.99,WNW,286,0.0,0.0,62,0.00,,,0.00,Wunderground v.1.15,2013-02-05 01:00:00,
2013-02-04 19:10:00,9.3,-1.4,29.99,WNW,286,0.0,0.0,61,0.00,,,0.00,Wunderground v.1.15,2013-02-05 01:10:00,
2013-02-04 19:20:00,9.2,-1.5,29.98,WNW,286,0.0,0.0,61,0.00,,,0.00,Wunderground v.1.15,2013-02-05 01:20:00,
2013-02-04 19:30:00,9.2,-1.2,29.98,WNW,286,0.0,0.0,62,0.00,,,0.00,Wunderground v.1.15,2013-02-05 01:30:00,
2013-02-04 19:40:00,8.2,-1.5,29.98,WNW,286,0.0,0.0,64,0.00,,,0.00,Wunderground v.1.15,2013-02-05 01:40:00,
2013-02-04 19:50:00,7.3,-0.7,29.98,WNW,286,0.0,0.0,69,0.00,,,0.00,Wunderground v.1.15,2013-02-05 01:50:00,
2013-02-04 20:00:00,6.9,-1.1,29.97,WNW,286,0.0,0.0,69,0.00,,,0.00,Wunderground v.1.15,2013-02-05 02:00:00,
2013-02-04 20:10:00,6.7,-0.7,29.97,WNW,286,0.0,0.0,71,0.00,,,0.00,Wunderground v.1.15,2013-02-05 02:10:00,
2013-02-04 20:15:00,6.6,-0.8,29.97,WNW,286,0.0,0.0,71,0.00,,,0.00,Wunderground v.1.15,2013-02-05 02:15:00,
2013-02-04 20:25:00,6.7,-0.7,29.97,WNW,286,0.0,0.0,71,0.00,,,0.00,Wunderground v.1.15,2013-02-05 02:25:00,
2013-02-04 20:35:00,6.5,-0.3,29.97,WNW,286,0.0,0.0,73,0.00,,,0.00,Wunderground v.1.15,2013-02-05 02:35:00,
2013-02-04 20:40:00,6.4,-0.1,29.97,WNW,286,0.0,0.0,74,0.00,,,0.00,Wunderground v.1.15,2013-02-05 02:40:00,
2013-02-04 20:50:00,6.1,-0.4,29.96,WNW,286,0.0,0.0,74,0.00,,,0.00,Wunderground v.1.15,2013-02-05 02:50:00,
2013-02-04 21:00:00,6.3,-0.5,29.96,WNW,286,0.0,0.0,73,0.00,,,0.00,Wunderground v.1.15,2013-02-05 03:00:00,
2013-02-04 21:05:00,6.5,-0.6,29.96,WNW,286,0.0,0.0,72,0.00,,,0.00,Wunderground v.1.15,2013-02-05 03:05:00,
2013-02-04 21:15:00,6.5,-0.6,29.96,WNW,286,0.0,0.0,72,0.00,,,0.00,Wunderground v.1.15,2013-02-05 03:15:00,
2013-02-04 21:20:00,6.5,-0.9,29.96,WNW,286,0.0,0.0,71,0.00,,,0.00,Wunderground v.1.15,2013-02-05 03:20:00,
2013-02-04 21:30:00,6.5,-0.9,29.95,WNW,286,0.0,0.0,71,0.00,,,0.00,Wunderground v.1.15,2013-02-05 03:30:00,
2013-02-04 21:40:00,6.4,-1.0,29.95,WNW,286,0.0,0.0,71,0.00,,,0.00,Wunderground v.1.15,2013-02-05 03:40:00,
2013-02-04 21:45:00,6.3,-1.1,29.95,WNW,286,0.0,0.0,71,0.00,,,0.00,Wunderground v.1.15,2013-02-05 03:45:00,
2013-02-04 21:55:00,6.3,-1.1,29.94,WNW,286,0.0,0.0,71,0.00,,,0.00,Wunderground v.1.15,2013-02-05 03:55:00,
2013-02-04 22:00:00,6.3,-1.1,29.94,WNW,286,0.0,0.0,71,0.00,,,0.00,Wunderground v.1.15,2013-02-05 04:00:00,
2013-02-04 22:10:00,6.5,-1.2,29.94,WNW,286,0.0,0.0,70,0.00,,,0.00,Wunderground v.1.15,2013-02-05 04:10:00,
2013-02-04 22:15:00,6.4,-1.3,29.94,WNW,286,0.0,0.0,70,0.00,,,0.00,Wunderground v.1.15,2013-02-05 04:15:00,
2013-02-04 22:25:00,6.4,-1.3,29.94,WNW,286,0.0,0.0,70,0.00,,,0.00,Wunderground v.1.15,2013-02-05 04:25:00,
2013-02-04 22:35:00,6.4,-1.6,29.93,WNW,286,0.0,0.0,69,0.00,,,0.00,Wunderground v.1.15,2013-02-05 04:35:00,
2013-02-04 22:45:00,6.2,-1.8,29.93,WNW,286,0.0,0.0,69,0.00,,,0.00,Wunderground v.1.15,2013-02-05 04:45:00,
2013-02-04 22:50:00,6.0,-1.7,29.93,WNW,286,0.0,0.0,70,0.00,,,0.00,Wunderground v.1.15,2013-02-05 04:50:00,
2013-02-04 23:00:00,5.9,-1.8,29.92,WNW,286,0.0,0.0,70,0.00,,,0.00,Wunderground v.1.15,2013-02-05 05:00:00,
2013-02-04 23:05:00,5.9,-1.8,29.92,WNW,286,0.0,0.0,70,0.00,,,0.00,Wunderground v.1.15,2013-02-05 05:05:00,
2013-02-04 23:10:00,5.7,-1.7,29.92,WNW,286,0.0,0.0,71,0.00,,,0.00,Wunderground v.1.15,2013-02-05 05:10:00,
2013-02-04 23:20:00,5.5,-2.2,29.92,WNW,285,1.0,1.0,70,0.00,,,0.00,Wunderground v.1.15,2013-02-05 05:20:00,
2013-02-04 23:25:00,5.7,-2.0,29.91,South,184,1.0,1.0,70,0.00,,,0.00,Wunderground v.1.15,2013-02-05 05:25:00,
2013-02-04 23:30:00,6.0,-1.7,29.91,South,184,1.0,1.0,70,0.00,,,0.00,Wunderground v.1.15,2013-02-05 05:30:00,
2013-02-04 23:40:00,6.1,-1.9,29.91,South,184,1.0,1.0,69,0.00,,,0.00,Wunderground v.1.15,2013-02-05 05:40:00,
2013-02-04 23:50:00,6.3,-1.7,29.91,South,177,1.0,2.0,69,0.00,,,0.00,Wunderground v.1.15,2013-02-05 05:50:00,